User: anonymous   Login
Location: Unspecified
(0.0000°N, 0.0000°E)
Time: 05:16:45
(UTC+00:00)
Language:

DNEPR OBJECT AC - Orbit

View from above orbital plane
View from above orbital plane
View from above satellite
View from above satellite

Ground track
Ground track

The orbit data is extracted from the following two-line orbital elements,

1 39442U 13066AC  19082.83944374  .00000128  00000-0  18464-4 0  9998
2 39442  97.5604 130.3899 0030470 238.5810 121.2428 14.90719715288719
Epoch (UTC): 23 March 2019 20:08:47
Eccentricity: 0.0030470
inclination: 97.5604°
perigee height: 574 km
apogee height: 617 km
right ascension of ascending node: 130.3899°
argument of perigee: 238.5810°
revolutions per day: 14.90719715
mean anomaly at epoch: 121.2428°
orbit number at epoch: 28871

The dashed part of the orbit path shows where the satellite is in the earth's shadow,  

DLR